Home > Weather > Minamisōma > Past weeks

Flag for Japan Past Weather in Minamisōma, Japan — Yesterday and Last 2 Weeks

Now
84 °F

Broken clouds.


Feels Like: 91 °F
Forecast: 69 / 73 °F
Wind: 17 mph from Southeast

Location: Sendai Airport

Current Time: Aug 26, 2016 at 2:19:46 PM

Latest Report: Aug 26, 2016 at 1:00 PM


Visibility: N/A

Pressure: 29.62 "Hg

Humidity: 70%

Dew Point: 73 °F

Location of MinamisōmaLocation

Past Weather in Minamisōma — Graph

°F

Minamisōma Temperature Yesterday

Maximum temperature yesterday: 82 °F (at 1:00 PM)
Minimum temperature yesterday: 75 °F (at 6:00 AM)
Average temperature yesterday: 80 °F

High & Low Weather Summary for the Past Weeks

 TemperatureHumidityPressure
High93 °F (Aug 21, 12:00 PM)94% (Aug 16, 8:00 PM)29.89 "Hg (Aug 16, 8:00 PM)
Low66 °F (Aug 13, 6:00 AM)47% (Aug 21, 12:00 PM)29.18 "Hg (Aug 17, 9:00 AM)
Average79 °F76%29.70 "Hg
* Reported Aug 11 1:00 PM — Aug 26 1:00 PM, Minamisōma, Weather by CustomWeather, © 2016

Note: Actual official high and low records may vary slightly from our data, if they occured in-between our weather recording intervals... More about our weather records

Advertising

Minamisōma Weather History for the Previous 24 Hours

Scroll right to see more
 ConditionsComfort  
Time TempWeatherWind HumidityBarometerVisibility
1:00 PM
Fri, Aug 26
84 °FBroken clouds.17 mph70%29.62 "HgN/A
12:00 PM82 °FPartly sunny.16 mph66%29.62 "HgN/A
11:00 AM82 °FPartly sunny.15 mph70%29.65 "HgN/A
10:00 AM82 °FPartly sunny.12 mph70%29.65 "HgN/A
9:00 AM82 °FScattered clouds.8 mph66%29.65 "HgN/A
8:00 AM81 °FPartly sunny.7 mph74%29.65 "HgN/A
7:00 AM81 °FPartly sunny.5 mph74%29.68 "HgN/A
6:00 AM77 °FPartly sunny.2 mph83%29.68 "HgN/A
9:00 PM
Thu, Aug 25
77 °FPassing clouds.14 mph89%29.71 "HgN/A
8:00 PM79 °FPassing clouds.12 mph84%29.74 "HgN/A
7:00 PM79 °FPassing clouds.16 mph84%29.71 "HgN/A
6:00 PM79 °FPassing clouds.20 mph84%29.68 "HgN/A
5:00 PM81 °FScattered clouds.18 mph74%29.68 "HgN/A
4:00 PM82 °FBroken clouds.18 mph74%29.68 "HgN/A
3:00 PM82 °FScattered clouds.18 mph74%29.71 "HgN/A
2:00 PM82 °FScattered clouds.17 mph74%29.71 "HgN/A
Weather by CustomWeather, © 2016

See weather overviewHow to use our weather pages